TimeHST,TemperatureF,Dew PointF,Humidity,Sea Level PressureIn,VisibilityMPH,Wind Direction,Wind SpeedMPH,Gust SpeedMPH,PrecipitationIn,Events,Conditions,WindDirDegrees,DateUTC
12:56 AM,66.9,66.9,100,30.08,10.0,ENE,3.5,-,N/A,,Clear,60,2013-01-04 10:56:00
1:56 AM,66.9,62.1,84,30.07,10.0,Calm,Calm,-,N/A,,Clear,0,2013-01-04 11:56:00
2:56 AM,66.9,66.0,97,30.06,10.0,ENE,3.5,-,N/A,,Clear,60,2013-01-04 12:56:00
3:56 AM,66.9,64.9,93,30.06,10.0,East,3.5,-,N/A,,Clear,80,2013-01-04 13:56:00
4:56 AM,66.0,63.0,90,30.06,10.0,East,4.6,-,N/A,,Clear,100,2013-01-04 14:56:00
5:56 AM,66.0,63.0,90,30.08,10.0,NE,4.6,-,N/A,,Clear,40,2013-01-04 15:56:00
6:56 AM,66.9,66.0,97,30.10,10.0,ENE,3.5,-,N/A,,Mostly Cloudy,70,2013-01-04 16:56:00
7:56 AM,68.0,66.0,93,30.13,10.0,East,3.5,-,N/A,,Overcast,100,2013-01-04 17:56:00
8:56 AM,73.0,68.0,84,30.15,10.0,Calm,Calm,-,N/A,,Mostly Cloudy,0,2013-01-04 18:56:00
9:56 AM,75.0,71.1,87,30.16,10.0,SSW,8.1,-,N/A,,Overcast,210,2013-01-04 19:56:00
10:56 AM,77.0,71.1,82,30.14,10.0,WSW,8.1,-,N/A,,Partly Cloudy,250,2013-01-04 20:56:00
11:56 AM,78.1,68.0,71,30.11,10.0,WNW,9.2,-,N/A,,Clear,300,2013-01-04 21:56:00
12:56 PM,79.0,64.9,62,30.07,10.0,NW,8.1,-,N/A,,Clear,310,2013-01-04 22:56:00
1:56 PM,80.1,60.1,50,30.04,10.0,West,9.2,-,N/A,,Clear,280,2013-01-04 23:56:00
2:56 PM,81.0,61.0,50,30.04,10.0,NNW,6.9,-,N/A,,Scattered Clouds,330,2013-01-05 00:56:00
3:56 PM,81.0,60.1,49,30.05,10.0,NW,8.1,-,N/A,,Clear,320,2013-01-05 01:56:00
4:56 PM,80.1,61.0,52,30.06,10.0,NW,6.9,-,N/A,,Clear,310,2013-01-05 02:56:00
5:56 PM,79.0,61.0,54,30.08,10.0,WNW,4.6,-,N/A,,Clear,290,2013-01-05 03:56:00
6:56 PM,75.0,66.9,76,30.10,10.0,Calm,Calm,-,N/A,,Clear,0,2013-01-05 04:56:00
7:56 PM,73.9,64.0,71,30.12,10.0,Calm,Calm,-,N/A,,Partly Cloudy,0,2013-01-05 05:56:00
8:56 PM,71.1,64.0,78,30.13,10.0,Calm,Calm,-,N/A,,Partly Cloudy,0,2013-01-05 06:56:00
9:56 PM,69.1,64.0,84,30.14,10.0,Calm,Calm,-,N/A,,Clear,0,2013-01-05 07:56:00
10:56 PM,71.1,68.0,90,30.14,10.0,East,4.6,-,N/A,,Clear,90,2013-01-05 08:56:00
11:56 PM,68.0,66.0,93,30.13,10.0,Calm,Calm,-,N/A,,Partly Cloudy,0,2013-01-05 09:56:00